Temperature
14 15 15 15 12 10 12 13 13 13 14 15 15 15 14 15 15 15 15 15 16 16 15 15 15 15 15 16 16 16 16 16 16 16 16 16 16 16 16 16 16 15 15 15 15 15 15 15 15
14 14 15 14 11 11 12 12 13 13 14 14 15 15 14 14 15 15 15 15 15 15 15 15 15 15 15 15 16 16 16 16 16 16 16 16 16 16 15 15 15 15 15 15 15 15 15 15 15
14 14 14 10 10 11 13 13 12 13 14 14 14 14 14 14 15 15 15 15 15 15 15 15 15 15 15 15 15 15 15 16 16 16 15 15 15 15 15 15 15 15 15 15 15 15 15 15 15
14 14 13 10 12 11 12 12 12 12 14 14 14 13 14 14 14 14 14 14 14 14 14 15 15 15 15 15 15 15 15 15 15 15 15 15 15 15 15 15 15 15 15 15 15 15 15 15 15
13 13 10 10 11 11 11 12 12 12 12 13 13 12 13 14 14 14 14 14 14 14 14 14 14 15 15 15 15 15 15 15 15 15 15 15 15 15 15 15 15 15 15 15 15 14 14 14 14
13 10 9 10 10 11 11 12 12 12 12 13 13 12 13 14 14 14 14 14 13 14 14 14 14 14 14 14 15 15 15 15 15 15 15 15 15 15 15 14 14 14 14 14 14 14 14 14 14
11 8 9 10 10 11 12 12 12 11 11 12 13 12 13 13 13 13 13 13 13 13 13 13 14 14 14 14 14 14 14 14 14 14 14 14 14 14 14 14 14 14 14 14 14 14 14 14 14
11 8 9 9 10 11 11 12 12 12 12 13 13 12 12 13 13 13 13 13 13 13 13 13 13 13 14 14 14 14 14 14 14 14 14 14 14 14 14 14 14 14 14 14 14 14 14 14 14
11 8 9 9 10 10 11 11 12 12 12 12 12 13 13 13 12 12 12 12 12 12 12 13 13 13 13 13 13 13 13 13 13 14 14 14 14 14 14 14 14 14 14 14 14 14 14 14 13
10 8 9 10 10 10 10 11 11 11 11 11 12 12 13 12 12 12 12 12 12 12 12 12 12 13 13 13 13 13 13 13 13 13 13 13 13 13 13 14 14 14 13 13 13 13 13 13 13
9 9 9 10 10 10 10 11 11 11 10 11 12 12 12 12 12 12 12 12 12 12 12 12 12 12 12 13 13 13 12 12 12 13 13 13 13 13 13 13 13 13 13 13 13 13 13 13 13
9 9 9 10 10 10 10 10 10 10 11 12 12 12 12 12 12 12 12 11 11 12 12 12 12 12 12 12 12 12 12 12 12 12 12 13 13 13 13 13 13 13 13 13 13 13 13 12 12
9 9 9 10 10 10 10 10 10 10 12 12 12 12 12 12 11 11 11 11 11 11 11 11 11 12 12 12 12 12 12 12 12 12 12 12 12 12 12 12 12 12 12 12 12 12 12 12 12
9 9 9 9 10 10 9 9 9 10 11 11 11 11 11 11 11 11 11 11 11 11 11 11 11 11 11 11 11 11 11 11 11 12 12 12 12 12 12 12 12 12 12 12 12 12 12 12 12
9 8 9 9 9 9 9 9 9 11 11 11 11 11 11 11 11 11 11 11 11 11 11 11 11 11 11 11 11 11 11 11 11 11 11 11 11 11 12 12 12 12 12 12 12 12 12 11 11
8 8 8 9 9 9 9 8 9 11 10 10 10 10 11 11 11 10 10 10 10 10 10 10 10 10 11 11 11 11 11 11 11 11 11 11 11 11 11 11 11 11 11 11 11 11 11 11 11
7 7 8 8 8 8 8 8 9 10 9 9 10 10 10 10 10 10 10 10 10 10 10 10 10 10 10 10 10 10 10 10 10 10 10 11 11 11 11 11 11 11 11 11 11 11 11 11 10
8 8 8 8 8 8 8 7 8 9 9 9 9 9 10 10 10 10 10 10 10 10 10 10 10 10 10 10 10 9 10 10 10 10 10 10 10 10 10 10 10 10 10 10 10 10 10 10 10
8 8 7 7 8 7 7 7 8 8 8 8 8 8 9 10 10 10 10 10 10 10 10 10 10 10 9 9 9 9 9 9 9 10 10 10 10 10 10 10 10 10 10 10 10 10 10 10 9
8 7 7 7 7 7 6 6 7 7 7 8 8 8 9 9 10 10 10 10 10 10 10 9 9 9 9 9 9 9 9 9 9 9 9 9 9 9 10 10 10 10 10 9 9 9 9 9 9
7 7 7 7 7 6 6 7 7 7 7 8 8 8 9 9 9 10 10 10 10 10 9 9 9 9 9 8 9 9 9 9 9 9 9 9 9 9 9 9 9 9 9 9 9 9 9 9 8
7 7 7 7 6 5 6 6 7 7 6 7 7 8 9 9 9 9 9 9 9 9 9 9 9 9 8 8 8 8 8 8 8 8 8 8 8 9 9 9 9 9 9 8 8 8 8 8 8
7 7 6 6 6 5 5 5 6 6 7 7 7 8 8 9 9 9 9 9 9 9 9 9 8 8 8 8 8 8 8 8 8 8 8 8 8 8 8 8 8 8 8 8 8 7 7 7 7
6 6 5 4 4 6 6 5 6 6 7 7 7 7 8 8 9 9 9 9 9 8 8 8 8 8 8 8 8 7 7 7 7 8 8 7 7 7 7 7 7 7 7 7 7 7 7 7 7
6 6 5 5 4 5 5 5 6 6 6 7 7 7 8 8 8 8 8 8 8 8 8 8 8 8 8 7 7 7 7 7 7 7 7 7 7 7 7 7 7 7 7 7 6 6 6 6 6
6 6 6 7 6 5 5 5 6 6 6 7 7 7 8 8 8 8 8 8 8 8 8 8 8 7 7 7 7 7 7 7 7 7 6 6 6 6 6 6 6 6 6 6 6 6 6 6 6
6 5 5 4 4 4 5 4 5 6 6 6 6 6 7 7 8 8 8 8 8 7 7 7 7 7 7 7 7 7 7 6 6 6 6 6 6 6 5 5 6 6 6 6 5 5 5 5 5
6 4 4 4 5 5 6 5 5 6 6 5 5 6 6 7 7 7 7 7 7 7 7 7 7 7 7 6 6 6 6 6 6 6 6 5 5 5 5 5 5 5 5 5 5 5 5 5 5
5 5 4 4 4 5 5 6 6 6 6 5 5 6 6 7 7 7 7 7 7 7 7 7 7 6 6 6 6 6 6 6 5 5 5 5 5 5 5 5 5 5 5 5 5 5 5 4 4
5 5 4 5 4 3 3 5 6 5 5 5 5 6 6 7 7 7 7 7 6 6 6 6 6 6 6 6 6 6 6 5 5 5 5 4 4 4 4 4 4 4 4 4 4 4 4 4 4
Wind_Speed
9 6 3 4 5 4 2 3 2 2 1 1 1 1 4 4 4 3 1 1 3 4 5 8 8 9 9 9 9 10 10 10 10 10 10 10 10 10 9 9 9 8 8 8 8 8 8 8 8
4 3 5 5 4 2 4 3 3 3 2 1 2 1 1 1 0 1 1 1 3 4 5 7 9 9 9 9 9 9 9 10 10 10 10 10 9 9 9 9 8 8 8 7 7 7 7 7 7
3 5 4 4 4 6 4 2 3 3 2 1 2 2 0 1 1 1 1 1 3 4 5 7 9 9 9 9 9 9 9 9 9 9 9 9 9 9 8 8 8 7 7 7 6 6 6 6 6
4 5 5 4 3 4 3 2 2 2 3 2 1 2 3 2 1 2 2 4 4 3 5 6 7 8 8 8 8 9 9 9 9 9 8 8 8 8 8 7 7 7 7 6 6 6 6 6 6
4 4 4 1 3 3 3 3 2 1 2 1 0 2 3 3 1 2 3 4 5 3 4 6 6 7 7 7 8 8 8 8 8 8 8 7 7 7 7 6 6 6 6 6 6 6 6 6 5
4 4 3 3 3 3 3 2 0 1 2 2 1 2 3 2 1 2 3 3 4 3 3 5 6 6 6 6 7 7 7 8 7 7 7 7 6 6 6 6 6 5 6 5 5 5 5 5 5
4 4 4 3 2 3 2 1 1 2 3 3 2 2 3 2 1 1 2 3 3 3 3 3 4 5 6 5 6 7 7 8 7 7 7 7 7 7 6 6 5 5 5 5 5 5 5 5 5
4 4 2 2 3 4 2 1 1 2 4 2 2 3 4 3 1 1 2 2 2 2 2 2 3 4 5 5 6 7 6 6 7 7 7 7 7 7 7 6 5 5 5 5 5 5 5 5 6
3 3 3 4 4 4 1 1 2 2 1 2 2 3 4 2 2 3 2 1 1 2 2 2 2 3 4 4 5 6 6 5 5 6 7 8 7 7 7 7 7 6 5 5 5 5 5 6 6
4 3 5 4 3 3 2 2 2 2 3 3 3 3 2 2 4 4 3 2 3 3 2 2 2 2 3 3 4 4 5 4 4 4 6 6 6 6 6 6 7 7 7 6 5 5 6 6 6
2 4 3 3 3 2 2 3 2 2 5 6 5 4 2 2 3 5 4 4 4 4 3 2 1 2 2 3 3 3 4 5 4 4 5 6 6 5 5 5 5 6 6 6 6 6 6 6 6
1 2 3 3 2 1 2 2 3 5 8 6 5 4 3 4 5 5 5 4 3 3 3 2 2 1 2 3 3 3 3 4 3 3 4 5 4 3 3 3 4 4 4 5 5 5 5 5 5
1 2 2 3 4 3 2 4 4 7 8 5 3 3 4 5 4 3 4 3 3 4 3 3 2 2 3 3 2 3 2 3 4 3 3 4 4 3 3 3 3 4 4 4 4 4 4 4 4
1 2 3 4 3 1 2 4 3 8 4 2 2 3 4 4 4 3 3 4 4 5 4 3 3 3 4 3 2 2 2 3 4 3 3 4 4 4 3 3 2 3 3 3 3 3 3 2 3
0 2 4 3 2 1 1 6 5 7 3 2 3 3 3 4 3 4 4 5 5 5 4 4 4 2 3 4 3 3 3 3 3 3 4 4 4 5 4 3 2 2 3 4 4 4 4 3 3
2 3 3 4 2 1 1 7 7 5 2 4 4 4 4 4 3 4 4 3 4 4 3 4 3 2 3 3 3 2 2 3 3 3 4 4 4 5 4 3 2 2 3 3 2 2 2 2 2
3 1 3 5 2 1 1 7 8 4 2 5 5 4 4 4 4 3 2 3 4 4 4 4 3 4 3 4 4 3 3 2 2 3 3 4 4 4 4 3 2 3 3 2 1 2 1 2 2
3 3 3 5 3 1 3 9 11 6 4 6 5 4 4 5 5 3 2 3 3 3 3 3 3 3 4 4 4 3 3 2 2 3 3 3 4 4 4 3 3 3 3 2 2 2 2 1 1
3 3 5 6 4 3 6 10 13 9 5 6 5 4 5 6 4 2 2 2 3 3 3 3 4 3 3 3 3 2 2 2 1 1 3 3 3 4 4 2 2 3 2 2 2 2 2 2 1
3 3 5 5 3 2 6 10 10 6 5 5 5 5 6 5 2 1 1 1 2 4 4 4 3 3 3 2 2 2 2 2 2 2 3 3 3 3 3 3 2 2 3 3 2 2 1 1 2
2 4 5 5 6 3 5 8 5 4 3 4 3 3 4 4 3 2 1 1 2 3 4 4 4 3 3 3 3 3 3 2 2 2 2 2 2 2 3 3 2 2 2 2 2 2 3 2 1
4 4 3 2 3 4 3 5 7 5 6 4 4 3 3 3 1 2 2 2 3 3 3 3 4 3 3 4 4 4 3 2 1 2 2 1 2 2 3 2 3 2 2 2 2 1 2 3 2
4 1 1 1 1 3 2 2 8 4 4 5 5 4 3 2 1 2 2 2 2 2 2 3 3 3 3 3 4 4 3 2 2 2 2 2 2 2 2 2 2 2 2 2 1 1 2 2 3
2 3 3 3 2 3 4 4 6 4 4 5 4 3 3 2 1 1 0 1 1 1 2 3 4 3 3 3 3 4 4 3 3 3 2 1 1 1 2 2 2 2 2 1 1 1 2 2 2
3 4 4 5 3 5 2 3 8 6 5 4 4 3 2 1 1 1 0 1 1 2 2 3 4 3 3 4 3 4 4 4 4 3 2 1 1 0 1 1 1 1 1 2 2 2 2 2 2
3 4 4 3 4 5 2 5 7 5 4 3 2 2 1 1 1 1 2 2 2 2 3 3 4 3 3 3 3 3 3 3 3 3 3 2 2 1 1 2 2 2 2 2 2 1 1 2 2
4 3 4 4 1 3 5 6 8 3 3 2 2 1 2 1 1 2 1 2 3 3 3 4 4 3 4 4 3 3 3 3 3 2 2 2 1 1 1 2 2 2 2 2 2 1 1 2 2
3 6 4 3 2 4 6 5 5 5 5 3 3 3 3 2 2 2 1 1 2 3 3 2 3 3 3 4 3 3 3 3 3 3 3 2 2 2 2 1 2 2 2 2 2 2 2 2 2
4 3 3 3 3 4 4 7 5 5 4 3 4 4 3 3 2 2 2 1 0 0 1 1 1 1 2 3 3 3 3 3 3 3 3 3 2 3 3 3 2 2 2 3 3 3 3 3 3
4 6 6 4 4 4 3 7 4 4 3 3 4 4 3 2 2 2 2 1 1 0 1 1 1 2 2 2 3 3 3 3 3 3 3 3 3 3 3 3 2 2 3 3 4 4 3 4 4
Wind_Direction
348 5 52 53 60 57 226 244 244 271 257 307 297 178 161 169 178 200 314 95 108 133 151 154 149 147 142 137 134 131 126 122 120 120 120 120 120 118 114 112 109 103 101 102 100 98 95 92 89
352 23 52 62 101 164 253 247 240 248 242 307 3 50 108 234 270 98 353 325 114 123 132 145 144 144 144 138 136 133 128 127 125 123 122 122 121 121 117 112 108 106 102 100 103 101 97 94 93
25 46 79 84 134 186 208 222 234 297 299 39 13 5 226 234 242 191 243 134 99 103 115 136 142 143 146 143 137 136 133 130 129 128 126 125 122 119 118 113 109 106 103 101 101 104 100 96 93
57 44 57 83 198 216 211 241 248 320 348 27 70 325 299 305 236 211 157 116 99 97 113 128 137 141 144 145 141 138 136 135 132 127 128 126 124 121 117 117 113 107 102 99 97 98 100 96 92
55 74 72 70 238 254 255 263 241 289 298 312 139 256 281 321 340 143 133 125 120 113 113 128 129 136 143 147 145 141 138 140 136 131 129 127 123 125 120 113 112 110 104 98 96 92 94 95 92
56 69 106 210 248 276 270 267 228 291 288 284 186 220 259 310 63 127 119 121 124 122 111 129 132 130 135 145 147 144 141 137 134 132 129 126 121 119 116 116 113 110 108 103 96 92 87 87 89
104 104 158 189 230 268 257 294 188 254 270 252 186 195 269 287 275 131 96 99 108 108 101 104 122 128 130 134 147 146 146 139 134 130 125 120 119 115 112 112 109 107 104 101 96 89 83 78 79
118 108 130 194 207 245 267 298 249 221 259 264 175 193 243 247 221 95 79 74 113 112 107 107 111 113 116 122 137 136 134 131 133 129 123 115 110 108 105 100 97 96 96 99 94 87 85 78 75
91 89 188 211 204 243 268 300 301 272 240 281 246 237 253 200 154 108 95 19 162 143 122 119 120 116 113 121 126 130 126 123 115 118 120 112 102 95 94 92 90 85 83 85 90 88 84 77 68
93 156 216 214 202 235 279 264 267 314 304 281 290 306 307 165 167 167 182 201 205 193 188 139 126 135 122 114 105 114 121 111 105 106 119 112 104 96 95 90 89 85 77 70 70 80 78 73 61
128 189 224 240 228 228 269 283 258 223 263 248 256 267 252 211 194 196 206 207 223 202 194 169 141 136 129 117 106 107 120 115 104 107 121 116 104 95 87 80 76 74 72 63 57 57 63 66 62
144 240 227 256 254 228 240 252 261 232 242 256 245 219 206 210 210 209 216 224 228 212 204 188 160 149 152 138 125 121 125 122 120 130 126 122 107 92 86 75 69 67 66 64 57 53 57 61 63
185 263 271 263 275 255 249 248 255 264 267 280 266 206 201 214 225 221 221 219 219 217 206 201 178 181 166 144 143 127 137 141 138 135 134 135 128 122 103 83 70 66 69 69 63 55 54 55 51
216 276 301 295 277 261 252 281 265 273 279 278 233 225 222 220 219 211 217 218 215 216 201 196 190 192 164 152 150 145 141 145 139 135 143 138 136 132 123 102 77 60 64 72 72 73 65 59 63
329 335 330 320 304 291 345 308 259 265 284 270 255 246 239 242 226 213 217 219 209 211 197 192 194 183 160 147 148 151 154 143 144 142 140 134 133 133 127 118 98 68 72 76 72 63 66 60 66
33 27 333 317 346 347 89 283 283 280 263 271 272 264 252 260 244 223 211 214 201 195 190 195 183 171 154 143 134 137 138 135 137 135 129 127 129 131 126 121 116 89 81 80 89 87 76 60 55
31 346 288 307 322 357 186 268 289 306 274 274 274 267 260 272 270 249 227 212 195 186 184 185 170 155 144 128 117 118 113 121 127 127 120 126 127 130 123 119 110 101 87 76 104 84 101 95 66
252 260 273 282 303 335 270 270 287 294 278 274 274 274 270 262 260 251 234 211 180 170 166 165 140 132 128 114 105 97 93 86 98 115 122 131 130 128 119 111 102 101 95 76 88 102 77 108 108
190 214 266 271 289 300 268 277 285 294 288 278 270 270 270 263 260 233 220 185 148 146 151 151 136 129 129 127 134 135 138 123 93 92 120 126 131 132 125 118 109 108 112 108 108 118 88 63 76
188 241 269 290 313 292 293 287 282 283 271 263 258 259 260 268 277 269 229 138 153 166 162 152 150 138 140 137 137 136 135 127 116 95 74 102 126 132 127 128 126 120 121 111 107 116 113 44 47
236 221 243 274 324 344 327 310 303 299 302 302 285 265 265 255 243 241 220 193 161 174 175 168 161 142 140 129 114 96 83 72 73 74 64 54 100 114 126 135 136 125 129 143 146 151 153 152 36
254 242 228 267 337 312 14 307 296 302 314 312 308 304 293 284 250 226 208 207 199 194 176 157 150 140 135 131 137 139 137 146 178 130 113 67 80 101 113 125 132 129 127 142 163 162 162 157 177
217 306 267 289 208 301 309 232 288 316 311 303 295 293 297 294 282 242 210 207 200 164 147 145 136 136 135 140 149 141 130 129 120 104 100 76 59 82 104 111 117 119 120 127 133 137 152 167 177
153 54 37 40 67 289 240 196 282 270 260 284 283 284 289 289 310 306 280 127 108 105 126 145 145 150 148 148 147 146 151 148 136 124 120 86 58 69 84 99 104 109 115 131 154 156 143 154 166
89 84 19 354 350 259 239 212 252 263 257 252 264 273 281 292 291 284 273 178 177 171 170 163 156 165 161 158 163 167 171 167 165 159 153 174 193 213 170 129 129 132 146 153 152 159 161 160 162
173 146 160 221 250 286 297 243 257 277 286 279 276 277 281 297 278 247 225 212 212 201 181 173 171 178 172 170 179 174 175 178 175 167 165 183 198 216 187 163 161 165 169 162 153 167 183 168 174
143 177 164 141 200 283 274 283 301 301 323 335 335 333 297 295 286 266 238 207 203 203 201 191 186 186 185 184 180 179 182 181 179 169 165 184 195 198 171 166 171 174 175 174 168 182 202 179 192
152 145 116 142 194 265 290 276 260 282 288 307 312 291 290 298 299 287 258 222 214 206 202 192 195 197 194 184 185 192 190 190 181 170 181 191 202 195 183 188 187 195 192 186 184 196 206 191 209
137 147 146 151 179 187 268 274 231 232 251 252 268 277 275 282 286 286 282 265 264 191 184 187 196 197 200 191 186 183 190 189 179 187 198 198 205 198 198 200 193 203 210 205 195 207 205 203 219
182 180 157 176 227 203 219 269 276 234 258 254 272 288 285 274 286 301 305 337 17 101 200 203 208 209 219 200 183 187 185 181 187 200 206 199 203 208 205 201 203 214 216 212 206 213 214 210 220
Height
1503 1503 1505 1506 1511 1522 1522 1517 1514 1512 1511 1510 1510 1510 1510 1512 1515 1518 1513 1511 1512 1514 1516 1517 1519 1521 1522 1523 1525 1526 1527 1528 1528 1529 1530 1531 1531 1532 1533 1534 1535 1536 1536 1537 1538 1538 1539 1539 1540
1503 1504 1506 1507 1517 1526 1522 1515 1513 1511 1510 1509 1509 1509 1509 1510 1510 1510 1510 1510 1512 1513 1515 1517 1519 1520 1521 1523 1524 1525 1526 1527 1528 1528 1529 1530 1531 1532 1533 1533 1534 1535 1536 1537 1537 1538 1539 1539 1540
1503 1504 1506 1510 1518 1522 1516 1512 1511 1510 1509 1509 1509 1509 1509 1509 1509 1509 1510 1510 1512 1513 1515 1516 1518 1519 1521 1522 1523 1524 1525 1526 1527 1528 1529 1530 1530 1531 1532 1533 1534 1535 1535 1536 1537 1538 1538 1539 1539
1504 1506 1507 1514 1516 1515 1512 1511 1510 1509 1509 1509 1509 1509 1509 1510 1509 1509 1510 1510 1511 1513 1514 1516 1517 1519 1520 1521 1522 1523 1524 1525 1526 1527 1528 1529 1530 1530 1531 1532 1533 1534 1535 1536 1536 1537 1538 1538 1539
1504 1505 1512 1518 1515 1513 1511 1509 1509 1509 1509 1509 1509 1509 1508 1509 1508 1508 1509 1510 1511 1512 1514 1515 1516 1518 1519 1520 1521 1522 1523 1524 1525 1526 1527 1528 1529 1530 1531 1532 1533 1533 1534 1535 1536 1536 1537 1538 1538
1505 1507 1518 1520 1515 1512 1510 1509 1509 1509 1509 1508 1508 1508 1507 1507 1507 1508 1508 1509 1511 1512 1513 1514 1515 1516 1518 1519 1520 1521 1522 1523 1524 1525 1526 1527 1528 1529 1530 1531 1532 1533 1534 1534 1535 1536 1536 1537 1538
1506 1511 1516 1516 1516 1512 1509 1508 1508 1508 1508 1508 1507 1507 1505 1505 1506 1506 1507 1508 1509 1511 1511 1512 1514 1515 1516 1517 1518 1519 1520 1521 1523 1524 1525 1526 1527 1528 1529 1530 1531 1532 1533 1533 1534 1535 1536 1536 1537
1505 1511 1515 1516 1514 1511 1508 1507 1507 1507 1506 1507 1506 1506 1504 1504 1504 1504 1505 1506 1508 1509 1510 1511 1512 1513 1514 1515 1517 1518 1519 1520 1522 1523 1524 1525 1526 1527 1528 1529 1530 1531 1532 1532 1533 1534 1535 1535 1536
1506 1514 1516 1514 1512 1509 1507 1507 1506 1506 1505 1505 1504 1504 1503 1502 1502 1502 1503 1504 1505 1506 1508 1509 1510 1511 1512 1513 1515 1516 1517 1519 1520 1522 1523 1524 1525 1526 1527 1528 1529 1530 1531 1531 1532 1533 1534 1534 1535
1506 1513 1510 1508 1507 1507 1506 1506 1505 1505 1504 1503 1502 1501 1501 1500 1500 1499 1500 1501 1502 1503 1505 1506 1508 1509 1510 1511 1512 1514 1515 1517 1518 1520 1521 1522 1524 1525 1526 1527 1528 1529 1529 1530 1531 1532 1532 1533 1534
1505 1508 1506 1506 1505 1505 1505 1504 1504 1504 1503 1501 1500 1499 1498 1498 1497 1497 1497 1498 1499 1501 1502 1504 1506 1507 1508 1509 1510 1512 1513 1515 1516 1518 1519 1521 1522 1523 1524 1525 1526 1527 1528 1529 1529 1530 1531 1532 1532
1506 1505 1504 1504 1503 1503 1503 1503 1503 1502 1500 1498 1498 1497 1496 1496 1495 1495 1495 1496 1497 1499 1500 1502 1503 1505 1506 1507 1508 1510 1511 1513 1514 1516 1517 1519 1520 1521 1523 1524 1525 1526 1527 1527 1528 1528 1529 1530 1530
1505 1504 1503 1503 1502 1502 1502 1501 1501 1498 1496 1495 1495 1494 1494 1493 1493 1493 1494 1495 1495 1497 1498 1500 1501 1502 1504 1505 1506 1508 1509 1511 1513 1514 1515 1517 1518 1520 1521 1522 1523 1524 1525 1526 1526 1527 1527 1528 1528
1504 1503 1502 1501 1500 1500 1500 1499 1499 1494 1494 1493 1492 1492 1492 1491 1491 1491 1492 1493 1493 1495 1496 1498 1499 1501 1502 1503 1504 1506 1508 1509 1511 1513 1514 1515 1517 1518 1519 1520 1521 1522 1523 1524 1524 1525 1525 1526 1526
1503 1504 1502 1500 1499 1499 1500 1499 1496 1492 1491 1490 1490 1490 1490 1489 1489 1489 1490 1491 1492 1493 1494 1496 1497 1498 1499 1501 1503 1504 1506 1507 1509 1511 1512 1513 1515 1516 1517 1518 1519 1520 1521 1522 1522 1523 1523 1523 1524
1504 1506 1506 1501 1499 1499 1502 1501 1492 1491 1489 1488 1488 1487 1487 1487 1487 1488 1488 1489 1490 1491 1492 1494 1495 1496 1497 1498 1500 1502 1504 1505 1506 1508 1510 1511 1513 1514 1515 1516 1517 1518 1519 1519 1520 1520 1521 1521 1521
1508 1511 1508 1504 1500 1500 1501 1499 1490 1489 1488 1487 1486 1485 1485 1485 1485 1485 1486 1486 1488 1489 1490 1491 1492 1493 1495 1496 1498 1500 1502 1503 1504 1505 1507 1509 1510 1512 1513 1514 1515 1516 1516 1517 1518 1518 1519 1519 1519
1509 1510 1508 1506 1501 1500 1501 1496 1489 1487 1486 1484 1483 1483 1482 1483 1483 1484 1484 1485 1486 1487 1488 1489 1490 1492 1493 1494 1496 1498 1500 1501 1501 1503 1505 1506 1508 1510 1511 1511 1512 1513 1514 1514 1515 1516 1516 1516 1517
1506 1508 1508 1504 1501 1501 1499 1495 1488 1484 1484 1482 1481 1480 1480 1481 1482 1482 1482 1483 1483 1484 1485 1487 1488 1490 1491 1492 1494 1496 1497 1499 1500 1501 1502 1504 1506 1507 1508 1509 1510 1511 1511 1512 1513 1513 1513 1514 1514
1505 1507 1507 1503 1500 1500 1498 1494 1486 1482 1481 1480 1479 1478 1478 1478 1479 1480 1480 1480 1481 1482 1483 1485 1486 1488 1489 1491 1493 1494 1496 1497 1498 1499 1499 1502 1503 1504 1506 1507 1508 1508 1509 1509 1510 1511 1510 1511 1512
1505 1506 1505 1504 1502 1500 1500 1493 1486 1481 1479 1478 1477 1477 1476 1476 1476 1477 1478 1479 1479 1480 1482 1483 1485 1487 1489 1490 1492 1493 1494 1495 1496 1496 1498 1499 1501 1502 1503 1504 1505 1506 1506 1507 1508 1508 1509 1508 1509
1504 1501 1502 1503 1505 1508 1505 1505 1488 1483 1481 1477 1476 1475 1474 1475 1475 1476 1477 1478 1478 1479 1481 1483 1484 1486 1488 1489 1490 1491 1491 1492 1494 1495 1496 1498 1499 1500 1501 1502 1503 1503 1504 1504 1505 1506 1506 1506 1507
1501 1501 1502 1503 1505 1509 1507 1507 1493 1485 1481 1477 1475 1474 1474 1474 1474 1475 1475 1476 1477 1479 1480 1481 1483 1484 1486 1488 1489 1489 1490 1491 1492 1493 1495 1496 1497 1497 1498 1499 1500 1500 1501 1502 1503 1503 1503 1503 1504
1500 1503 1505 1508 1510 1510 1505 1508 1495 1486 1480 1476 1474 1473 1473 1473 1473 1474 1475 1475 1476 1477 1478 1480 1481 1482 1484 1485 1487 1488 1489 1489 1490 1491 1492 1493 1494 1495 1495 1496 1497 1497 1498 1499 1500 1500 1501 1501 1501
1501 1507 1515 1514 1519 1509 1503 1504 1493 1479 1476 1475 1473 1472 1472 1472 1473 1473 1473 1474 1475 1476 1477 1477 1479 1480 1482 1483 1485 1486 1487 1488 1488 1489 1490 1491 1492 1492 1492 1493 1494 1494 1495 1496 1497 1497 1498 1498 1498
1501 1503 1512 1512 1513 1510 1504 1501 1486 1477 1475 1473 1472 1472 1472 1472 1472 1472 1472 1473 1474 1475 1475 1476 1477 1479 1480 1482 1483 1484 1485 1486 1486 1487 1488 1489 1489 1489 1489 1490 1491 1491 1492 1493 1494 1494 1494 1494 1494
1500 1505 1505 1513 1517 1516 1504 1496 1483 1474 1473 1472 1472 1471 1471 1471 1471 1471 1471 1472 1472 1473 1474 1475 1476 1478 1479 1480 1481 1482 1483 1483 1484 1484 1485 1486 1487 1487 1487 1487 1488 1489 1489 1490 1490 1490 1490 1490 1490
1497 1502 1509 1510 1510 1508 1499 1496 1487 1475 1473 1472 1471 1470 1470 1470 1470 1470 1470 1471 1471 1472 1473 1474 1475 1476 1477 1478 1479 1479 1480 1481 1481 1482 1483 1484 1484 1484 1484 1484 1484 1485 1486 1486 1487 1487 1487 1487 1487
1499 1501 1503 1508 1509 1509 1504 1491 1476 1474 1472 1472 1471 1470 1470 1470 1469 1469 1469 1470 1470 1471 1471 1472 1473 1474 1475 1475 1476 1477 1478 1478 1479 1480 1480 1481 1481 1481 1481 1481 1481 1482 1482 1483 1483 1483 1483 1483 1483
1493 1495 1500 1504 1506 1510 1507 1492 1472 1472 1470 1470 1470 1469 1469 1469 1469 1468 1468 1469 1469 1469 1470 1470 1471 1471 1472 1473 1473 1474 1475 1475 1476 1477 1477 1478 1478 1478 1478 1478 1478 1478 1479 1479 1480 1480 1480 1480 1480